Joliet, IL

10:04 AM CDT on April 19, 2018 (GMT -0500)
Joliet Regional

Weather History for KJOT - March, 2013

Change the Weather History Date:

Friday, March 8, 2013

  Actual Average (KARR) Record (KARR)
Temperature  
Mean Temperature 26 °F -  
Max Temperature 36 °F 37 °F 76 °F (2000)
Min Temperature 15 °F 20 °F 5 °F (2013)
Degree Days  
Heating Degree Days 40    
Moisture  
Dew Point 23 °F    
Average Humidity 80    
Maximum Humidity 96    
Minimum Humidity 64    
Precipitation  
Precipitation 0.00 in - - ()
Sea Level Pressure  
Sea Level Pressure 30.41 in    
Wind  
Wind Speed 3 mph (SE)    
Max Wind Speed 13 mph    
Max Gust Speed 17 mph    
Visibility 8 miles    
Events      
Averages and records for this station are not official NWS values.
T = Trace of Precipitation, MM = Missing Value Source: NWS Daily Summary

Daily Weather History Graph

Daily Weather History Graph

Search for Another Location

Airport or City:

Astronomy

Mar. 08, 2013 Rise Set
Actual Time 6:15 AM CST 5:51 PM CST
Civil Twilight 5:48 AM CST 6:19 PM CST
Nautical Twilight 5:16 AM CST 6:51 PM CST
Astronomical Twilight 4:43 AM CST 7:23 PM CST
Moon 4:01 AM CST (3/8) 2:44 PM CST (3/8)
Length of Visible Light 12h 31m
Length of Day
11h 36m
Waning Crescent, 11% of the Moon is Illuminated
Mar 8
Waning Crescent
Mar 11
New
Mar 19
First Quarter
Mar 27
Full
Apr 2
Last Quarter

Hourly Weather History & Observations

Time (CST) Temp. Windchill Dew Point Humidity Pressure Visibility Wind Dir Wind Speed Gust Speed Precip Events Conditions
12:15 AM 19.2 °F - 18.1 °F 96% 30.42 in 1.5 mi Calm Calm - N/A   Mist
12:35 AM 19.2 °F - 18.3 °F 96% 30.43 in 1.0 mi Calm Calm - N/A   Mist
12:55 AM 18.0 °F - 16.7 °F 95% 30.42 in 3.0 mi Calm Calm - N/A   Clear
1:15 AM 18.5 °F - 17.6 °F 96% 30.43 in 5.0 mi Calm Calm - N/A   Clear
1:35 AM 19.8 °F - 18.9 °F 96% 30.43 in 5.0 mi Calm Calm - N/A   Clear
1:55 AM 18.5 °F - 17.6 °F 96% 30.44 in 5.0 mi Calm Calm - N/A   Clear
2:15 AM 18.0 °F - 16.5 °F 94% 30.44 in 4.0 mi Calm Calm - N/A   Clear
2:35 AM 16.9 °F - 15.4 °F 94% 30.44 in 5.0 mi Calm Calm - N/A   Clear
2:55 AM 18.7 °F - 17.8 °F 96% 30.44 in 4.0 mi Calm Calm - N/A   Clear
3:15 AM 18.5 °F - 17.4 °F 96% 30.43 in 4.0 mi Calm Calm - N/A   Clear
3:35 AM 17.6 °F - 16.7 °F 96% 30.42 in 5.0 mi Calm Calm - N/A   Clear
4:15 AM 16.7 °F - 15.6 °F 96% 30.43 in 2.5 mi Calm Calm - N/A   Clear
4:35 AM 17.2 °F - 16.0 °F 95% 30.44 in 3.0 mi Calm Calm - N/A   Clear
4:55 AM 16.2 °F - 14.7 °F 94% 30.45 in 2.5 mi Calm Calm - N/A   Clear
5:15 AM 16.0 °F - 14.9 °F 95% 30.45 in 4.0 mi Calm Calm - N/A   Clear
5:35 AM 15.3 °F - 13.8 °F 94% 30.45 in 3.0 mi Calm Calm - N/A   Clear
5:55 AM 15.6 °F - 14.5 °F 95% 30.45 in 5.0 mi Calm Calm - N/A   Clear
6:15 AM 15.8 °F - 14.2 °F 93% 30.45 in 5.0 mi Calm Calm - N/A   Clear
6:35 AM 18.0 °F - 17.1 °F 96% 30.46 in 5.0 mi Calm Calm - N/A   Clear
6:55 AM 20.1 °F - 19.2 °F 96% 30.45 in 4.0 mi Calm Calm - N/A   Clear
7:15 AM 22.1 °F - 21.2 °F 96% 30.46 in 4.0 mi Calm Calm - N/A   Clear
7:55 AM 25.3 °F 21.1 °F 24.4 °F 96% 30.47 in 7.0 mi ESE 3.5 mph - N/A   Clear
8:15 AM 26.4 °F 22.4 °F 25.2 °F 95% 30.47 in 7.0 mi ESE 3.5 mph - N/A   Clear
8:35 AM 26.6 °F 20.0 °F 24.8 °F 93% 30.47 in 10.0 mi SE 5.8 mph - N/A   Clear
8:55 AM 29.3 °F 23.2 °F 23.9 °F 80% 30.48 in 10.0 mi ESE 5.8 mph - N/A   Clear
9:15 AM 30.6 °F 23.8 °F 24.1 °F 77% 30.48 in 10.0 mi ESE 6.9 mph - N/A   Clear
9:35 AM 31.6 °F 25.1 °F 24.1 °F 74% 30.48 in 10.0 mi ESE 6.9 mph - N/A   Clear
9:55 AM 32.0 °F 25.6 °F 24.4 °F 74% 30.47 in 10.0 mi SE 6.9 mph - N/A   Clear
10:15 AM 32.9 °F 24.7 °F 25.2 °F 73% 30.47 in 10.0 mi ESE 10.4 mph - N/A   Clear
10:35 AM 33.4 °F 25.9 °F 24.8 °F 71% 30.47 in 10.0 mi SE 9.2 mph - N/A   Clear
10:55 AM 34.2 °F 26.2 °F 24.4 °F 68% 30.46 in 10.0 mi SE 10.4 mph 16.1 mph N/A   Clear
11:35 AM 34.9 °F 27.1 °F 25.3 °F 68% 30.47 in 10.0 mi SE 10.4 mph - N/A   Clear
11:55 AM 35.2 °F 28.1 °F 25.9 °F 69% 30.46 in 10.0 mi SE 9.2 mph - N/A   Clear
12:15 PM 35.4 °F 28.4 °F 25.5 °F 67% 30.45 in 10.0 mi SE 9.2 mph - N/A   Clear
12:35 PM 35.6 °F 28.0 °F 25.5 °F 67% 30.43 in 10.0 mi SE 10.4 mph - N/A   Clear
12:55 PM 35.8 °F 28.8 °F 25.5 °F 66% 30.42 in 10.0 mi SE 9.2 mph - N/A   Clear
1:15 PM 36.1 °F 28.2 °F 25.5 °F 65% 30.41 in 10.0 mi SE 11.5 mph - N/A   Clear
1:35 PM 36.3 °F 28.9 °F 25.9 °F 66% 30.40 in 10.0 mi SE 10.4 mph - N/A   Clear
1:55 PM 36.7 °F 30.5 °F 26.2 °F 66% 30.40 in 10.0 mi SE 8.1 mph - N/A   Clear
2:15 PM 36.9 °F 30.7 °F 25.9 °F 64% 30.39 in 10.0 mi SE 8.1 mph - N/A   Clear
2:35 PM 36.9 °F 30.7 °F 25.5 °F 64% 30.39 in 10.0 mi SE 8.1 mph - N/A   Clear
2:55 PM 36.7 °F 29.9 °F 25.7 °F 64% 30.39 in 10.0 mi ESE 9.2 mph - N/A   Clear
3:15 PM 36.7 °F 29.9 °F 25.7 °F 64% 30.38 in 10.0 mi SE 9.2 mph - N/A   Clear
3:35 PM 36.7 °F 29.9 °F 25.7 °F 64% 30.37 in 10.0 mi ESE 9.2 mph - N/A   Clear
3:55 PM 36.5 °F 31.0 °F 25.9 °F 65% 30.37 in 10.0 mi SE 6.9 mph - N/A   Clear
4:15 PM 36.5 °F 31.8 °F 26.4 °F 67% 30.37 in 10.0 mi ESE 5.8 mph - N/A   Clear
4:35 PM 35.8 °F 29.4 °F 26.1 °F 68% 30.37 in 10.0 mi SE 8.1 mph - N/A   Clear
4:55 PM 35.8 °F 28.8 °F 25.9 °F 67% 30.37 in 10.0 mi ESE 9.2 mph - N/A   Clear
5:15 PM 35.6 °F 29.9 °F 26.4 °F 69% 30.38 in 10.0 mi SE 6.9 mph - N/A   Clear
5:35 PM 34.5 °F 28.6 °F 26.4 °F 72% 30.38 in 10.0 mi ESE 6.9 mph - N/A   Clear
5:55 PM 34.0 °F 28.8 °F 26.2 °F 73% 30.38 in 10.0 mi SE 5.8 mph - N/A   Clear
6:15 PM 33.8 °F 29.6 °F 26.6 °F 75% 30.39 in 10.0 mi ESE 4.6 mph - N/A   Clear
6:35 PM 32.0 °F 26.4 °F 24.8 °F 75% 30.38 in 10.0 mi ESE 5.8 mph - N/A   Clear
6:55 PM 32.9 °F 26.7 °F 25.7 °F 75% 30.38 in 10.0 mi East 6.9 mph - N/A   Clear
7:15 PM 32.9 °F 27.5 °F 25.7 °F 75% 30.37 in 10.0 mi ESE 5.8 mph - N/A   Clear
7:35 PM 32.2 °F 25.8 °F 25.7 °F 77% 30.37 in 10.0 mi ESE 6.9 mph - N/A   Clear
7:55 PM 32.4 °F 26.0 °F 25.5 °F 76% 30.37 in 10.0 mi ESE 6.9 mph - N/A   Clear
8:15 PM 32.0 °F - 25.5 °F 77% 30.38 in 10.0 mi Calm Calm - N/A   Clear
8:35 PM 32.4 °F 27.9 °F 25.3 °F 75% 30.37 in 10.0 mi ESE 4.6 mph - N/A   Clear
8:55 PM 32.4 °F 26.9 °F 25.3 °F 75% 30.37 in 10.0 mi ESE 5.8 mph - N/A   Clear
9:15 PM 32.0 °F 26.4 °F 25.0 °F 75% 30.36 in 10.0 mi ESE 5.8 mph - N/A   Clear
9:35 PM 32.0 °F 24.8 °F 24.8 °F 75% 30.35 in 10.0 mi ESE 8.1 mph - N/A   Clear
9:55 PM 32.0 °F 23.6 °F 25.2 °F 76% 30.34 in 10.0 mi ESE 10.4 mph - N/A   Clear
10:15 PM 32.0 °F 23.6 °F 25.0 °F 75% 30.32 in 10.0 mi ESE 10.4 mph - N/A   Clear
10:35 PM 32.2 °F 22.7 °F 24.8 °F 74% 30.31 in 10.0 mi ESE 12.7 mph - N/A   Clear
10:55 PM 32.2 °F 24.4 °F 24.8 °F 74% 30.31 in 10.0 mi ESE 9.2 mph - N/A   Clear
11:15 PM 32.5 °F 24.8 °F 24.8 °F 73% 30.31 in 10.0 mi ESE 9.2 mph 17.3 mph N/A   Clear
11:35 PM 32.4 °F 24.6 °F 24.8 °F 74% 30.30 in 10.0 mi ESE 9.2 mph - N/A   Clear